GSAT0203 (GALILEO 7)

Last updated on Fri Oct 31 2025 00:02:33 GMT+0000 (Coordinated Universal Time)

1 40544U 15017A 25302.68530111 -.00000065 00000+0 00000+0 0 9998 2 40544 56.8565 347.8828 0006120 259.1588 100.8373 1.70476177 65273
UTC large
Height (km)
Speed (km/s)
/
Latitude / Longitude
Inclination (degrees)
Orbital Period (minutes)
Azimuth
Elevation
Range (km)
Doppler Factor

Next 0 passes for location: London (51.5072 / 0.1276)

Sorry there are no passes over London.